Stations météo

Publicité
Lyon/Bron, France (7480): Température de l'air & dewpoint: 25.10.2020 23:00:00 - 31.10.2020 23:00:00 (CET)Lyon/Bron, France (7480): Température de l'air 5cm: 25.10.2020 23:00:00 - 31.10.2020 23:00:00 (CET)Lyon/Bron, France (7480): Température de l'air -20cm: 25.10.2020 23:00:00 - 31.10.2020 23:00:00 (CET)Lyon/Bron, France (7480): Vitesse du vent & gusts: 25.10.2020 23:00:00 - 31.10.2020 23:00:00 (CET)Lyon/Bron, France (7480): Direction du vent: 25.10.2020 23:00:00 - 31.10.2020 23:00:00 (CET)Lyon/Bron, France (7480): reduced air pressure: 25.10.2020 23:00:00 - 31.10.2020 23:00:00 (CET)Lyon/Bron, France (7480): visibility: 25.10.2020 23:00:00 - 31.10.2020 23:00:00 (CET)Lyon/Bron, France (7480): Ensoleillement: 25.10.2020 23:00:00 - 31.10.2020 23:00:00 (CET)Lyon/Bron, France (7480): Quantités de précipitations: 25.10.2020 23:00:00 - 31.10.2020 23:00:00 (CET)
Date & Time tt [°C] td [°C] tt 5cm [°C] tt -20cm [°C] ff [km/h] ff [knt] fx [km/h] fx [knt] dd ppp [hPa] vv [km] sd [min] rr [mm]
31.10.2020 23:00:00 9,9 8,3 7,9 14,1 10 6 13 7 ESE 1023,2 18 0 0,0
31.10.2020 22:00:00 10,2 8,8 6,8 14,2 3 1 8 4 E 1023,5 15 0 0,0
31.10.2020 21:00:00 11,1 9,5 7,6 14,2 6 4 12 6 SE 1022,8 24 0 0,0
31.10.2020 20:00:00 11,6 9,8 8,6 14,3 6 3 11 6 SSE 1022,6 13 0 0,0
31.10.2020 19:00:00 13,1 11,0 9,5 14,2 4 2 13 7 S 1022,1 12 0 0,0
31.10.2020 18:00:00 14,7 11,1 9,9 14,1 3 2 10 5 ESE 1021,5 31 4 0,0
31.10.2020 17:00:00 17,8 11,4 14,6 13,9 4 2 11 6 SW 1021,2 39 60 0,0
31.10.2020 16:00:00 19,4 12,2 19,4 13,7 8 5 18 10 SW 1021,0 36 60 0,0
31.10.2020 15:00:00 19,4 11,9 20,6 13,4 12 6 23 12 S 1021,3 33 60 0,0
31.10.2020 14:00:00 18,4 11,9 20,1 13,2 8 4 17 9 S 1021,8 19 58 0,0
31.10.2020 13:00:00 16,2 10,9 19,3 13,0 5 3 14 7 SSE 1023,0 29 60 0,0
31.10.2020 12:00:00 13,1 10,3 16,3 12,9 5 3 11 6 S 1024,0 14 60 0,0
31.10.2020 11:00:00 9,8 9,3 10,8 12,9 3 1 10 5 NW 1024,9 7 26 0,0
31.10.2020 10:00:00 8,4 8,1 8,1 13,0 4 2 9 5 SSE 1025,5 0,3 0 0,0
31.10.2020 09:00:00 7,4 7,0 6,9 13,1 0 0 5 3 N 1025,9 0,1 0 0,0
31.10.2020 08:00:00 6,8 6,4 6,1 13,2 4 2 9 5 ENE 1025,7 0,2 0 0,0
31.10.2020 07:00:00 6,1 5,7 2,2 13,4 5 3 7 4 NE 1025,3 3,4 0 0,0
31.10.2020 06:00:00 5,4 4,7 2,6 13,5 0 0 6 4 N 1025,5 3,1 0 0,0
31.10.2020 05:00:00 5,8 5,1 2,6 13,6 2 1 7 4 ENE 1025,4 2,5 0 0,0
31.10.2020 04:00:00 6,1 5,4 3,0 13,8 3 1 6 4 SSE 1025,4 7 0 0,0
31.10.2020 03:00:00 6,8 6,1 3,5 14,0 5 3 6 4 S 1025,7 10 0 0,0
31.10.2020 02:00:00 7,3 6,4 3,8 14,1 2 1 9 5 SSE 1026,0 6 0 0,0
31.10.2020 01:00:00 8,2 7,3 4,6 14,2 5 3 8 5 SSE 1026,3 10 0 0,0
31.10.2020 00:00:00 8,6 7,7 4,8 14,4 3 1 6 3 SSW 1026,4 8 0 0,0
30.10.2020 23:00:00 9,0 7,8 5,8 14,5 3 2 6 3 S 1026,6 11 0 0,0
30.10.2020 22:00:00 9,5 8,1 6,0 14,6 4 2 5 3 SSW 1027,0 17 0 0,0
30.10.2020 21:00:00 10,2 8,5 6,6 14,7 2 1 7 4 SSW 1026,6 27 0 0,0
30.10.2020 20:00:00 11,1 9,0 7,7 14,7 0 0 4 2 N 1026,6 19 0 0,0
30.10.2020 19:00:00 12,6 9,6 8,3 14,7 4 2 9 5 NW 1026,3 43 0 0,0
30.10.2020 18:00:00 14,8 10,0 10,3 14,6 6 3 11 6 NNE 1025,7 57 5 0,0
30.10.2020 17:00:00 17,4 10,5 16,1 14,4 9 5 18 10 NNE 1025,3 60 60 0,0
30.10.2020 16:00:00 18,6 10,9 19,2 14,2 11 6 19 10 NNE 1025,3 44 60 0,0
30.10.2020 15:00:00 18,7 10,8 22,3 13,9 11 6 19 10 N 1025,3 58 60 0,0
30.10.2020 14:00:00 18,4 10,2 21,7 13,7 8 4 19 10 N 1025,4 49 60 0,0
30.10.2020 13:00:00 17,8 10,7 21,4 13,5 9 5 21 11 N 1025,9 37 60 0,0
30.10.2020 12:00:00 16,3 10,4 20,6 13,4 4 2 16 9 N 1026,8 20 60 0,0
30.10.2020 11:00:00 14,4 10,4 18,9 13,4 4 2 10 6 N 1027,3 18 60 0,0
30.10.2020 10:00:00 13,2 10,4 16,4 13,5 2 1 7 4 NE 1027,5 19 60 0,0
30.10.2020 09:00:00 11,1 10,2 7,3 13,6 0 0 5 3 N 1027,9 20 60 0,0
30.10.2020 08:00:00 7,7 7,1 4,1 13,7 2 1 9 5 SE 1028,1 9 17 0,0
30.10.2020 07:00:00 7,2 6,3 4,3 13,8 4 2 5 3 SE 1027,8 10 0 0,0
30.10.2020 06:00:00 7,8 6,7 4,5 13,9 2 1 3 2 SE 1027,7 9 0 0,0
30.10.2020 05:00:00 8,5 7,3 5,5 14,0 2 1 5 3 E 1027,2 7 0 0,0
30.10.2020 04:00:00 9,8 8,4 7,4 14,0 5 3 8 4 E 1027,0 9 0 0,0
30.10.2020 03:00:00 11,4 9,6 10,4 14,1 5 3 6 4 ENE 1027,1 14 0 0,0
30.10.2020 02:00:00 11,6 9,8 11,1 14,2 3 2 8 5 ESE 1027,4 19 0 0,0
30.10.2020 01:00:00 11,5 9,9 10,6 14,2 4 2 13 7 SSE 1027,3 20 0 0,0
30.10.2020 00:00:00 11,4 10,0 8,4 14,3 6 4 9 5 SE 1027,0 16 0 0,0
29.10.2020 23:00:00 12,0 9,9 10,4 14,3 2 1 9 5 WNW 1026,9 20 0 0,0
29.10.2020 22:00:00 12,4 10,1 11,2 14,4 6 3 8 5 SSW 1026,9 18 0 0,0
29.10.2020 21:00:00 11,4 9,5 8,6 14,5 3 1 5 3 SW 1026,8 36 0 0,0
29.10.2020 20:00:00 11,3 9,0 8,4 14,5 3 2 4 2 W 1026,3 48 0 0,0
29.10.2020 19:00:00 12,4 8,9 9,2 14,5 3 2 4 2 E 1026,0 49 0 0,0
29.10.2020 18:00:00 13,6 8,8 10,0 14,4 3 2 6 3 NNE 1025,4 60 2 0,0
29.10.2020 17:00:00 15,6 9,0 15,2 14,4 0 0 6 4 N 1025,3 60 2 0,0
29.10.2020 16:00:00 15,9 9,3 16,0 14,2 0 0 5 3 N 1025,2 60 0 0,0
29.10.2020 15:00:00 15,8 9,2 16,2 14,1 4 2 10 5 SE 1025,1 60 0 0,0
29.10.2020 14:00:00 16,3 9,7 17,4 13,9 6 3 12 7 ESE 1025,5 60 10 0,0
29.10.2020 13:00:00 15,6 9,7 16,6 13,8 4 2 10 6 SSE 1025,9 59 0 0,0
29.10.2020 12:00:00 15,2 9,8 16,2 13,7 3 2 9 5 ENE 1026,2 60 7 0,0
29.10.2020 11:00:00 14,8 9,8 15,1 13,7 3 2 15 8 NE 1026,1 60 0 0,0
29.10.2020 10:00:00 14,0 9,4 14,1 13,7 6 4 9 5 NNE 1025,8 46 0 0,0
29.10.2020 09:00:00 13,3 9,2 12,6 13,7 4 2 9 5 E 1025,1 47 0 0,0
29.10.2020 08:00:00 13,1 8,4 11,5 13,8 3 1 10 5 SSW 1024,4 59 0 0,0
29.10.2020 07:00:00 12,7 8,0 11,2 13,9 6 3 9 5 S 1023,7 60 0 0,0
29.10.2020 06:00:00 12,5 7,8 10,9 13,9 4 2 10 6 SSE 1023,4 60 0 0,0
29.10.2020 05:00:00 12,9 7,6 11,6 13,9 8 5 13 7 SSW 1022,7 60 0 0,0
29.10.2020 04:00:00 13,3 7,9 12,1 14,0 10 5 14 8 SSW 1022,1 60 0 0,0
29.10.2020 03:00:00 13,4 8,2 12,3 14,1 11 6 19 10 SSW 1022,0 20 0 0,0
29.10.2020 02:00:00 13,7 8,5 11,7 14,1 10 6 22 12 S 1021,9 60 0 0,0
29.10.2020 01:00:00 13,4 8,7 11,7 14,2 5 3 12 7 S 1022,2 19 0 0,0
29.10.2020 00:00:00 13,6 8,8 10,3 14,2 9 5 15 8 S 1021,6 60 0 0,0
28.10.2020 23:00:00 14,7 8,9 13,2 14,3 16 8 27 15 W 1021,4 60 0 0,0
28.10.2020 22:00:00 14,4 9,6 12,4 14,3 8 5 19 10 SSW 1020,8 60 0 0,0
28.10.2020 21:00:00 14,7 9,7 13,4 14,3 11 6 19 11 SSW 1020,0 60 0 0,0
28.10.2020 20:00:00 14,8 10,4 13,4 14,3 12 7 22 12 S 1019,6 56 0 0,0
28.10.2020 19:00:00 15,1 10,7 13,0 14,2 6 4 9 5 SSE 1019,4 51 0 0,0
28.10.2020 18:00:00 15,9 10,4 14,5 14,2 6 3 27 15 SW 1018,6 60 0 0,0
28.10.2020 17:00:00 16,3 10,2 15,4 14,1 19 10 32 17 S 1017,5 60 4 0,0
28.10.2020 16:00:00 17,7 10,6 17,3 13,9 22 12 33 18 S 1017,2 48 13 0,0
28.10.2020 15:00:00 17,4 10,3 17,7 13,7 18 10 27 14 S 1017,3 60 14 0,0
28.10.2020 14:00:00 18,5 10,6 18,6 13,5 16 8 29 16 S 1017,6 57 41 0,0
28.10.2020 13:00:00 17,2 10,3 17,4 13,3 17 9 27 14 S 1018,3 37 45 0,0
28.10.2020 12:00:00 15,8 9,7 16,4 13,3 9 5 15 8 S 1019,1 60 38 0,0
28.10.2020 11:00:00 14,0 8,6 14,5 13,2 9 5 18 10 SSE 1019,6 60 2 0,0
28.10.2020 10:00:00 13,2 8,1 13,1 13,2 10 6 18 10 SSE 1019,0 53 30 0,0
28.10.2020 09:00:00 12,2 7,7 9,7 13,2 5 3 26 14 WNW 1019,0 59 24 0,0
28.10.2020 08:00:00 10,9 7,4 9,4 13,3 13 7 27 15 S 1017,9 37 0 0,0
28.10.2020 07:00:00 10,6 7,7 9,2 13,4 8 5 17 9 SE 1017,0 60 0 0,0
28.10.2020 06:00:00 10,4 7,6 9,2 13,4 11 6 20 11 SE 1016,2 60 0 0,0
28.10.2020 05:00:00 10,2 7,8 9,1 13,5 12 6 22 12 SSE 1015,7 60 0 0,2
28.10.2020 04:00:00 10,4 8,0 9,1 13,5 8 5 21 11 SSE 1015,4 7 0 1,4
28.10.2020 03:00:00 10,9 7,4 9,1 13,6 9 5 24 13 SSE 1015,1 60 0 0,0
28.10.2020 02:00:00 11,1 7,2 9,1 13,6 10 6 20 11 S 1015,2 14 0 0,4
28.10.2020 01:00:00 11,3 7,4 9,1 13,7 14 8 26 14 S 1015,0 12 0 0,2
28.10.2020 00:00:00 12,0 6,1 10,4 13,7 17 9 29 15 SSE 1014,8 60 0 0,0
27.10.2020 23:00:00 12,3 5,7 11,7 13,8 17 9 26 14 SSE 1014,7 60 0 0,0
27.10.2020 22:00:00 12,4 5,8 11,7 13,8 15 8 24 13 SSE 1014,5 60 0 0,0
27.10.2020 21:00:00 12,4 6,2 11,0 13,9 13 7 25 14 SSE 1014,3 60 0 0,0
27.10.2020 20:00:00 12,6 5,7 11,9 13,9 15 8 22 12 SSE 1014,3 60 0 0,0
27.10.2020 19:00:00 12,7 5,6 12,1 13,8 12 6 20 11 SSE 1014,0 60 0 0,0
27.10.2020 18:00:00 13,0 6,3 12,3 13,8 11 6 17 9 SSE 1013,6 60 0 0,0
27.10.2020 17:00:00 13,7 6,1 13,2 13,6 9 5 20 11 SSE 1013,4 60 5 0,0
27.10.2020 16:00:00 14,3 5,6 14,7 13,5 12 6 21 11 S 1013,4 60 25 0,0
27.10.2020 15:00:00 14,6 5,7 15,4 13,3 11 6 20 11 SSE 1013,6 60 14 0,0
27.10.2020 14:00:00 14,5 6,1 15,2 13,1 10 5 23 12 SSE 1013,7 52 39 0,0
27.10.2020 13:00:00 14,1 5,4 15,0 12,9 9 5 22 12 S 1014,4 57 30 0,0
27.10.2020 12:00:00 13,6 6,0 15,0 12,8 7 4 17 9 S 1014,7 57 39 0,0
27.10.2020 11:00:00 12,7 6,9 13,6 12,7 8 4 20 11 SSE 1014,9 46 47 0,0
27.10.2020 10:00:00 11,1 6,8 10,9 12,7 8 5 13 7 S 1015,1 39 33 0,0
27.10.2020 09:00:00 9,9 6,4 7,9 12,8 5 3 12 6 S 1015,0 41 52 0,0
27.10.2020 08:00:00 7,9 6,4 7,1 12,8 11 6 17 9 SSE 1014,7 33 1 0,0
27.10.2020 07:00:00 8,0 6,6 7,3 12,9 4 2 10 5 SSE 1014,0 20 0 0,0
27.10.2020 06:00:00 7,9 6,4 6,7 13,0 3 2 8 4 SE 1013,4 28 0 0,0
27.10.2020 05:00:00 7,6 6,1 6,6 13,1 5 3 8 5 S 1013,0 39 0 0,0
27.10.2020 04:00:00 7,5 6,0 5,7 13,2 6 3 11 6 S 1012,9 43 0 0,0
27.10.2020 03:00:00 7,5 5,8 6,0 13,3 2 1 12 7 SSE 1012,9 34 0 0,0
27.10.2020 02:00:00 7,6 6,4 5,7 13,4 3 2 9 5 SSE 1013,1 34 0 0,0
27.10.2020 01:00:00 7,6 6,5 4,4 13,5 7 4 10 5 SSE 1013,0 33 0 0,0
27.10.2020 00:00:00 7,5 6,4 4,8 13,6 5 3 10 5 SSE 1012,9 20 0 0,0
26.10.2020 23:00:00 8,2 7,0 6,9 13,7 5 3 9 5 SSE 1012,8 29 0 0,0
26.10.2020 22:00:00 8,2 7,1 5,7 13,8 3 2 7 4 S 1012,7 28 0 0,0
26.10.2020 21:00:00 8,1 6,6 5,7 13,9 4 2 9 5 SSE 1012,3 34 0 0,0
26.10.2020 20:00:00 8,6 7,2 5,7 13,9 6 3 11 6 SSW 1011,9 45 0 0,0
26.10.2020 19:00:00 9,6 7,0 7,1 14,0 8 4 11 6 E 1011,3 42 0 0,0
26.10.2020 18:00:00 11,1 7,6 9,0 13,9 2 1 15 8 S 1010,4 55 0 0,2
26.10.2020 17:00:00 11,6 6,3 11,0 13,8 9 5 19 11 E 1009,4 60 4 0,0
26.10.2020 16:00:00 12,4 6,7 12,4 13,6 11 6 23 12 E 1009,3 53 38 0,0
26.10.2020 15:00:00 13,5 7,0 13,3 13,4 9 5 20 11 ESE 1009,0 36 35 0,0
26.10.2020 14:00:00 12,6 6,4 13,8 13,3 10 5 20 11 ESE 1009,6 42 48 0,0
26.10.2020 13:00:00 12,4 6,4 12,4 13,2 8 4 20 11 SE 1010,0 59 49 0,0
26.10.2020 12:00:00 11,5 6,8 12,3 13,1 10 5 18 10 SE 1010,3 56 43 0,0
26.10.2020 11:00:00 10,0 7,1 9,0 13,2 6 3 12 6 S 1010,6 57 15 0,0
26.10.2020 10:00:00 7,9 6,2 7,7 13,3 5 3 9 5 S 1010,9 60 0 0,0
26.10.2020 09:00:00 7,5 6,0 6,8 13,3 5 3 13 7 SSW 1010,6 60 0 0,2
26.10.2020 08:00:00 7,4 6,0 6,6 13,5 7 4 19 10 SE 1010,3 19 0 1,2
26.10.2020 07:00:00 7,6 6,2 6,8 13,6 9 5 21 11 SE 1010,0 7 0 1,9
26.10.2020 06:00:00 7,9 6,5 7,2 13,7 11 6 18 10 ESE 1009,5 11 0 3,0
26.10.2020 05:00:00 8,4 6,9 7,6 13,9 13 7 21 11 ENE 1009,3 4,0 0 7,9
26.10.2020 04:00:00 9,5 8,6 8,9 14,1 8 4 16 9 ENE 1008,4 5 0 7,4
26.10.2020 03:00:00 9,7 8,8 9,1 14,2 10 5 19 11 N 1007,6 10 0 4,5
26.10.2020 02:00:00 10,0 8,9 9,4 14,3 11 6 24 13 N 1008,0 3,8 0 5,8
26.10.2020 01:00:00 10,6 9,2 9,8 14,3 16 9 33 18 NNW 1007,3 4,2 0 7,5
26.10.2020 00:00:00 13,0 11,2 11,9 14,3 16 9 36 19 N 1006,8 4,8 0 3,8
25.10.2020 23:00:00 16,8 10,6 15,8 14,3 15 8 30 16 SW 1005,1 57 0 0,0

tt = Température de l'air
td = dewpoint
tt 5cm = Température de l'air 5cm
tt -20cm = Température de l'air -20cm
ff = Vitesse du vent
fx = gusts
dd = Direction du vent
ppp = reduced air pressure
vv = visibility
sd = Ensoleillement
rr = Quantités de précipitations

stations d'obs. à proximité